When you browse on this site, cookies collect data to enhance your experience and personalize the content and advertising you see.
Visit our Privacy Policy to learn more. By continuing to use the site, you agree to this use of cookies and data.
  • In United Kingdom
  • List of Countries
  • For 7 days
  • Water Temperature
  • Satellite Maps
  • Weather Map
  • Weather Widgets
  • user-avatar
    Login

    Hourly Weather Yulara

    Today, 14 December, Friday

    Time Temperature Precipitation Wind Pressure Humidity
    00:00 +26°C° 0 mm 8 mps 716 mmHg 22%
    01:00 +23°C° 0 mm 8 mps 716 mmHg 24%
    02:00 +22°C° 0 mm 8 mps 715 mmHg 27%
    03:00 +21°C° 0 mm 8 mps 715 mmHg 30%
    04:00 +20°C° 0 mm 8 mps 715 mmHg 32%
    05:00 +20°C° 0 mm 7 mps 716 mmHg 35%
    06:00 +18°C° 0 mm 7 mps 716 mmHg 37%
    07:00 +20°C° 0 mm 7 mps 716 mmHg 34%
    08:00 +21°C° 0 mm 6 mps 716 mmHg 31%
    09:00 +22°C° 0 mm 6 mps 717 mmHg 29%
    10:00 +25°C° 0 mm 5 mps 716 mmHg 25%
    11:00 +27°C° 0 mm 4 mps 716 mmHg 22%
    12:00 +28°C° 0 mm 3 mps 716 mmHg 18%
    13:00 +30°C° 0 mm 4 mps 715 mmHg 16%
    14:00 +32°C° 0 mm 4 mps 714 mmHg 14%
    15:00 +33°C° 0 mm 4 mps 714 mmHg 12%
    16:00 +33°C° 0 mm 5 mps 714 mmHg 12%
    17:00 +33°C° 0 mm 5 mps 714 mmHg 12%
    18:00 +32°C° 0 mm 6 mps 714 mmHg 12%
    19:00 +30°C° 0 mm 6 mps 714 mmHg 13%
    20:00 +29°C° 0 mm 6 mps 714 mmHg 14%
    21:00 +27°C° 0 mm 7 mps 714 mmHg 16%
    22:00 +26°C° 0 mm 6 mps 714 mmHg 17%
    23:00 +24°C° 0 mm 6 mps 714 mmHg 18%

    Tomorrow, 15 December, Saturday

    Time Temperature Precipitation Wind Pressure Humidity
    00:00 +23°C° 0 mm 6 mps 714 mmHg 19%
    01:00 +23°C° 0 mm 5 mps 714 mmHg 21%
    02:00 +22°C° 0 mm 5 mps 714 mmHg 23%
    03:00 +21°C° 0 mm 4 mps 713 mmHg 24%
    04:00 +21°C° 0 mm 4 mps 714 mmHg 26%
    05:00 +20°C° 0 mm 4 mps 714 mmHg 28%
    06:00 +20°C° 0 mm 3 mps 714 mmHg 30%
    07:00 +21°C° 0 mm 3 mps 714 mmHg 28%
    08:00 +24°C° 0 mm 3 mps 714 mmHg 26%
    09:00 +25°C° 0 mm 3 mps 715 mmHg 25%
    10:00 +27°C° 0 mm 3 mps 714 mmHg 22%
    11:00 +28°C° 0 mm 2 mps 714 mmHg 19%
    12:00 +30°C° 0 mm 1 mps 714 mmHg 16%
    13:00 +31°C° 0 mm 1 mps 713 mmHg 14%
    14:00 +33°C° 0 mm 1 mps 713 mmHg 12%
    15:00 +34°C° 0 mm 1 mps 712 mmHg 11%
    16:00 +34°C° 0 mm 1 mps 712 mmHg 10%
    17:00 +34°C° 0 mm 1 mps 712 mmHg 10%
    18:00 +35°C° 0 mm 1 mps 712 mmHg 9%
    19:00 +34°C° 0 mm 2 mps 712 mmHg 10%
    20:00 +32°C° 0 mm 2 mps 712 mmHg 11%
    21:00 +31°C° 0 mm 3 mps 712 mmHg 12%
    22:00 +30°C° 0 mm 3 mps 713 mmHg 14%
    23:00 +29°C° 0 mm 3 mps 713 mmHg 15%

    Day after tomorrow, 16 December, Sunday

    Time Temperature Precipitation Wind Pressure Humidity
    00:00 +29°C° 0 mm 3 mps 713 mmHg 16%
    01:00 +28°C° 0 mm 3 mps 713 mmHg 18%
    02:00 +27°C° 0 mm 3 mps 712 mmHg 20%
    03:00 +27°C° 0 mm 4 mps 712 mmHg 22%
    04:00 +26°C° 0 mm 4 mps 712 mmHg 25%
    05:00 +26°C° 0 mm 4 mps 713 mmHg 27%
    06:00 +25°C° 0 mm 5 mps 713 mmHg 30%
    07:00 +28°C° 0 mm 5 mps 713 mmHg 26%
    08:00 +30°C° 0 mm 6 mps 714 mmHg 23%
    09:00 +33°C° 0 mm 7 mps 714 mmHg 19%
    10:00 +35°C° 0 mm 6 mps 714 mmHg 16%
    11:00 +37°C° 0 mm 4 mps 713 mmHg 13%
    12:00 +39°C° 0 mm 3 mps 713 mmHg 10%
    13:00 +40°C° 0 mm 3 mps 712 mmHg 10%
    14:00 +41°C° 0 mm 2 mps 712 mmHg 9%
    15:00 +42°C° 0 mm 1 mps 711 mmHg 9%
    16:00 +42°C° 0 mm 1 mps 711 mmHg 9%
    17:00 +42°C° 0 mm 1 mps 711 mmHg 9%
    18:00 +42°C° 0 mm 2 mps 711 mmHg 9%
    19:00 +42°C° 0 mm 3 mps 711 mmHg 10%
    20:00 +40°C° 0 mm 4 mps 711 mmHg 11%
    21:00 +39°C° 0 mm 5 mps 711 mmHg 12%
    22:00 +38°C° 0 mm 6 mps 711 mmHg 13%
    23:00 +36°C° 0 mm 7 mps 711 mmHg 14%

    17 December, Monday

    Time Temperature Precipitation Wind Pressure Humidity
    00:00 +35°C° 0 mm 8 mps 711 mmHg 14%
    01:00 +35°C° 0 mm 8 mps 711 mmHg 15%
    02:00 +34°C° 0 mm 7 mps 711 mmHg 16%
    03:00 +33°C° 0 mm 7 mps 711 mmHg 16%
    04:00 +32°C° 0 mm 7 mps 711 mmHg 17%
    05:00 +32°C° 0 mm 6 mps 711 mmHg 17%
    06:00 +32°C° 0 mm 6 mps 711 mmHg 17%
    07:00 +35°C° 0 mm 7 mps 712 mmHg 15%
    08:00 +39°C° 0 mm 9 mps 712 mmHg 12%
    09:00 +42°C° 0 mm 10 mps 712 mmHg 10%
    10:00 +44°C° 0 mm 10 mps 712 mmHg 10%
    11:00 +45°C° 0 mm 9 mps 712 mmHg 10%
    12:00 +48°C° 0 mm 9 mps 711 mmHg 10%
    13:00 +48°C° 0 mm 9 mps 711 mmHg 10%
    14:00 +47°C° 0 mm 9 mps 710 mmHg 11%
    15:00 +47°C° 0 mm 9 mps 710 mmHg 12%
    16:00 +46°C° 0 mm 8 mps 710 mmHg 13%
    17:00 +45°C° 0 mm 8 mps 710 mmHg 13%
    18:00 +45°C° 0 mm 7 mps 710 mmHg 14%
    19:00 +44°C° 0 mm 6 mps 710 mmHg 16%
    20:00 +42°C° 0 mm 6 mps 710 mmHg 18%
    21:00 +40°C° 0 mm 5 mps 711 mmHg 19%
    22:00 +40°C° 0 mm 5 mps 711 mmHg 20%
    23:00 +40°C° 0 mm 5 mps 711 mmHg 20%

    18 December, Tuesday

    Time Temperature Precipitation Wind Pressure Humidity
    00:00 +38°C° 0 mm 4 mps 711 mmHg 21%
    01:00 +38°C° 0 mm 6 mps 710 mmHg 19%
    02:00 +36°C° 0 mm 7 mps 710 mmHg 17%
    03:00 +35°C° 0 mm 8 mps 710 mmHg 15%
    04:00 +34°C° 0 mm 7 mps 711 mmHg 14%
    05:00 +33°C° 0 mm 6 mps 711 mmHg 14%
    06:00 +32°C° 0 mm 6 mps 712 mmHg 13%
    07:00 +34°C° 0 mm 6 mps 712 mmHg 12%
    08:00 +35°C° 0 mm 5 mps 713 mmHg 12%
    09:00 +37°C° 0 mm 5 mps 713 mmHg 11%
    10:00 +40°C° 0 mm 4 mps 713 mmHg 11%
    11:00 +41°C° 0 mm 4 mps 713 mmHg 11%
    12:00 +42°C° 0 mm 3 mps 713 mmHg 11%
    13:00 +43°C° 0 mm 4 mps 713 mmHg 10%
    14:00 +45°C° 0 mm 5 mps 712 mmHg 10%
    15:00 +46°C° 0 mm 6 mps 712 mmHg 10%
    16:00 +46°C° 0 mm 6 mps 712 mmHg 10%
    17:00 +45°C° 0 mm 6 mps 712 mmHg 10%
    18:00 +45°C° 0 mm 6 mps 712 mmHg 10%
    19:00 +43°C° 0 mm 5 mps 713 mmHg 11%
    20:00 +42°C° 0 mm 5 mps 713 mmHg 12%
    21:00 +41°C° 0 mm 5 mps 714 mmHg 13%
    22:00 +39°C° 0 mm 6 mps 714 mmHg 14%
    23:00 +38°C° 0 mm 7 mps 714 mmHg 15%

    19 December, Wednesday

    Time Temperature Precipitation Wind Pressure Humidity
    00:00 +35°C° 0 mm 8 mps 714 mmHg 17%
    01:00 +34°C° 0 mm 7 mps 714 mmHg 19%
    02:00 +33°C° 0 mm 7 mps 713 mmHg 20%
    03:00 +32°C° 0 mm 7 mps 713 mmHg 22%
    04:00 +32°C° 0 mm 7 mps 714 mmHg 24%
    05:00 +31°C° 0 mm 8 mps 715 mmHg 26%
    06:00 +29°C° 0 mm 8 mps 715 mmHg 28%
    07:00 +32°C° 0 mm 8 mps 716 mmHg 27%
    08:00 +33°C° 0 mm 8 mps 716 mmHg 26%
    09:00 +35°C° 0 mm 8 mps 717 mmHg 25%
    10:00 +36°C° 0 mm 7 mps 716 mmHg 22%
    11:00 +39°C° 0 mm 6 mps 716 mmHg 20%
    12:00 +40°C° 0 mm 5 mps 716 mmHg 17%
    13:00 +41°C° 0 mm 5 mps 716 mmHg 16%
    14:00 +42°C° 0 mm 4 mps 715 mmHg 15%
    15:00 +43°C° 0 mm 4 mps 715 mmHg 14%
    16:00 +42°C° 0 mm 4 mps 715 mmHg 14%
    17:00 +42°C° 0 mm 5 mps 715 mmHg 14%
    18:00 +42°C° 0 mm 5 mps 715 mmHg 15%
    19:00 +40°C° 0 mm 6 mps 716 mmHg 17%
    20:00 +39°C° 0 mm 7 mps 716 mmHg 18%
    21:00 +38°C° 0 mm 8 mps 716 mmHg 20%
    22:00 +37°C° 0 mm 8 mps 716 mmHg 21%
    23:00 +35°C° 0 mm 8 mps 716 mmHg 22%
    Show more